JCSAT-16

Last updated on Thu Oct 03 2024 00:02:40 GMT+0000 (Coordinated Universal Time)

1 41729U 16050A 24276.22549635 -.00000251 00000+0 00000+0 0 9999 2 41729 0.0243 185.8451 0001453 280.9901 129.7204 1.00268383 29825
UTC large
Height (km)
Speed (km/s)
/
Latitude / Longitude
Inclination (degrees)
Orbital Period (minutes)
Azimuth
Elevation
Range (km)
Doppler Factor

Next 0 passes for location: London (51.5072 / 0.1276)

Sorry there are no passes over London.